This demonstration page uses our WeatherBlox Daily Observations layout. Learn more.

Left ArrowRight Arrow

Hourly Observations for November 1, 2018

Temp ( °F °C ) Dew Point ( °F °C ) Humidity (%) Winds ( mph kmh ) Pressure ( in mb ) Visibility ( mi km ) Precip ( " mm )
6:30 am 06:30 Cloudy with Rain 45 7 43 6 93 93 NNE 14 22 29.80 1009 5 8 N/A
6:45 am 06:45 Cloudy with Rain 45 7 41 5 87 87 NNE 21 33 29.77 1008 5 8 N/A
7:45 am 07:45 Cloudy with Rain 45 7 41 5 87 87 NNE 16 26 29.74 1007 5 8 N/A
8:45 am 08:45 Cloudy with Rain 45 7 41 5 87 87 N 17 28 29.71 1006 4 6 N/A
9:45 am 09:45 Cloudy with Rain 45 7 41 5 87 87 NE 16 26 29.68 1005 5 8 N/A
10:45 am 10:45 Cloudy with Rain 45 7 41 5 87 87 NNE 23 37 29.68 1005 4 6 N/A
11:45 am 11:45 Cloudy with Rain 45 7 41 5 87 87 N 17 28 29.62 1003 5 8 N/A
12:55 pm 12:55 Cloudy with Rain 45 7 41 5 87 87 N 14 22 29.62 1003 3 5 N/A
1:12 pm 13:12 Cloudy with Rain 45 7 41 5 87 87 N 14 22 29.62 1003 2 3 N/A
1:45 pm 13:45 Cloudy with Rain 45 7 41 5 87 87 N 21 33 29.59 1002 3 4 N/A
2:51 pm 14:51 Cloudy with Light Rain 45 7 41 5 87 87 NNE 16 26 29.56 1001 2 3 N/A
3:46 pm 15:46 Cloudy with Light Rain 45 7 43 6 93 93 NNE 16 26 29.56 1001 3 4 N/A
4:46 pm 16:46 Cloudy with Light Rain 46 8 43 6 87 87 NNE 15 24 29.56 1001 2 2 N/A
5:04 pm 17:04 Cloudy with Light Rain 45 7 43 6 93 93 NNE 15 24 29.56 1001 2 3 N/A
5:52 pm 17:52 Cloudy with Light Rain 45 7 43 6 93 93 N 12 19 29.56 1001 2 3 N/A
6:47 pm 18:47 Cloudy with Light Rain 45 7 43 6 93 93 NNW 12 19 29.56 1001 3 5 N/A
7:26 pm 19:26 Cloudy with Light Rain 45 7 43 6 93 93 N 12 19 29.56 1001 7 11 N/A
7:45 pm 19:45 Cloudy with Light Rain 45 7 41 5 87 87 N 14 22 29.56 1001 10 16 N/A
8:52 pm 20:52 Cloudy with Light Rain 45 7 41 5 87 87 NNE 8 13 29.56 1001 10 16 N/A
9:33 pm 21:33 Cloudy with Light Rain 45 7 41 5 87 87 NW 8 13 29.62 1003 3 4 N/A
9:48 pm 21:48 Cloudy with Light Rain 45 7 41 5 87 87 NW 9 15 29.62 1003 3 4 N/A

Powered by AerisWeather